Weather History for Newport Airport, OR

Change the Weather History Date:

Sunday, December 25, 2011

  Actual Average Record
Temperature  
Mean Temperature 44 °F -  
Max Temperature 50 °F 48 °F 57 °F (1999)
Min Temperature 39 °F 39 °F 20 °F (1999)
Degree Days  
Heating Degree Days 20    
Moisture  
Dew Point 41 °F    
Average Humidity 81    
Maximum Humidity 100    
Minimum Humidity 62    
Precipitation  
Precipitation 0.11 in - - ()
Sea Level Pressure  
Sea Level Pressure 30.30 in    
Wind  
Wind Speed 13 mph (SSW)    
Max Wind Speed 31 mph    
Max Gust Speed 40 mph    
Visibility 6 miles    
Events Rain    
Averages and records for this station are not official NWS values.
T = Trace of Precipitation, MM = Missing Value Source: NWS Daily Summary

Daily Weather History Graph

Daily Weather History Graph

Search for Another Location

Airport:

Trip Planner

Search our weather history database for the weather conditions in past years. The results will help you decide how hot, cold, wet, or windy it might be!

Date:

Astronomy

Dec. 25, 2011 Rise Set
Actual Time 7:51 AM PST 4:41 PM PST
Civil Twilight 7:18 AM PST 5:14 PM PST
Nautical Twilight 6:41 AM PST 5:51 PM PST
Astronomical Twilight 6:05 AM PST 6:27 PM PST
Moon 8:32 AM PST (12/25) 6:10 PM PST (12/25)
Length of Visible Light 9h 56m
Length of Day
8h 49m
New Moon, 2% of the Moon is Illuminated
Dec 25
New Moon
Dec 31
First Quarter
Jan 8
Full
Jan 16
Last Quarter
Jan 22
New

Hourly Weather History & Observations

Time (PST) Temp. Windchill Dew Point Humidity Pressure Visibility Wind Dir Wind Speed Gust Speed Precip Events Conditions
12:15 AM 41.0 °F - 35.6 °F 81% 30.26 in 10.0 mi Calm Calm - N/A   Clear
12:35 AM 44.6 °F 40.7 °F 35.6 °F 71% 30.25 in 10.0 mi SSE 6.9 mph - N/A   Clear
12:55 AM 44.6 °F 40.7 °F 35.6 °F 71% 30.24 in 10.0 mi South 6.9 mph - N/A   Clear
1:15 AM 44.6 °F 40.7 °F 33.8 °F 66% 30.24 in 10.0 mi South 6.9 mph - N/A   Clear
1:35 AM 44.6 °F 39.2 °F 33.8 °F 66% 30.24 in 10.0 mi South 10.4 mph - N/A   Clear
1:55 AM 46.4 °F 41.1 °F 33.8 °F 62% 30.23 in 10.0 mi South 11.5 mph 18.4 mph N/A   Clear
2:15 AM 46.4 °F 40.7 °F 35.6 °F 66% 30.23 in 10.0 mi SSE 12.7 mph - N/A   Clear
2:35 AM 48.2 °F - 35.6 °F 62% 30.23 in 10.0 mi South 11.5 mph 17.3 mph N/A   Clear
2:55 AM 48.2 °F - 37.4 °F 66% 30.22 in 7.0 mi South 20.7 mph 25.3 mph N/A   Clear
3:15 AM 48.2 °F - 37.4 °F 66% 30.23 in 10.0 mi SSW 13.8 mph 21.9 mph N/A   Clear
3:35 AM 46.4 °F 38.7 °F 39.2 °F 76% 30.23 in 7.0 mi South 20.7 mph 27.6 mph N/A   Clear
3:55 AM 46.4 °F 37.9 °F 41.0 °F 81% 30.23 in 7.0 mi SSW 25.3 mph 32.2 mph N/A   Clear
4:15 AM 46.4 °F 37.9 °F 42.8 °F 87% 30.24 in 5.0 mi SSW 25.3 mph 34.5 mph N/A   Haze
4:35 AM 46.4 °F 39.2 °F 42.8 °F 87% 30.22 in 7.0 mi South 18.4 mph 29.9 mph N/A   Overcast
4:55 AM 46.4 °F 38.1 °F 42.8 °F 87% 30.21 in 7.0 mi South 24.2 mph 31.1 mph N/A   Mostly Cloudy
5:15 AM 46.4 °F 38.3 °F 42.8 °F 87% 30.19 in 10.0 mi South 23.0 mph 38.0 mph N/A   Scattered Clouds
5:35 AM 46.4 °F 37.9 °F 41.0 °F 81% 30.19 in 10.0 mi South 25.3 mph 32.2 mph N/A   Scattered Clouds
5:55 AM 48.2 °F - 41.0 °F 76% 30.19 in 10.0 mi South 23.0 mph 39.1 mph N/A   Mostly Cloudy
6:15 AM 46.4 °F 37.9 °F 41.0 °F 81% 30.18 in 10.0 mi South 25.3 mph 40.3 mph N/A   Mostly Cloudy
6:35 AM 48.2 °F - 41.0 °F 76% 30.19 in 10.0 mi South 31.1 mph 39.1 mph N/A   Mostly Cloudy
6:55 AM 48.2 °F - 41.0 °F 76% 30.17 in 10.0 mi South 23.0 mph 29.9 mph N/A   Overcast
7:15 AM 46.4 °F 37.4 °F 42.8 °F 87% 30.18 in 4.0 mi South 28.8 mph 38.0 mph N/A Rain Light Rain
7:35 AM 46.4 °F 37.4 °F 42.8 °F 87% 30.19 in 3.0 mi South 28.8 mph 36.8 mph N/A Rain Light Rain
7:55 AM 44.6 °F 35.1 °F 42.8 °F 93% 30.21 in 2.5 mi South 27.6 mph 36.8 mph 0.02 in Rain Light Rain
8:15 AM 44.6 °F 35.1 °F 42.8 °F 93% 30.21 in 3.0 mi South 27.6 mph 40.3 mph 0.03 in Rain Rain
8:35 AM 44.6 °F 34.7 °F 44.6 °F 100% 30.23 in 3.0 mi South 29.9 mph 36.8 mph 0.07 in Rain Rain
8:55 AM 46.4 °F 37.7 °F 44.6 °F 93% 30.24 in 3.0 mi SSW 26.5 mph 40.3 mph 0.08 in Rain Light Rain
9:15 AM 46.4 °F 37.9 °F 44.6 °F 93% 30.27 in 2.0 mi SSW 25.3 mph 35.7 mph 0.01 in Rain Light Rain
9:35 AM 46.4 °F 39.2 °F 44.6 °F 93% 30.29 in 3.0 mi SW 18.4 mph 23.0 mph 0.01 in   Drizzle
9:55 AM 46.4 °F 40.1 °F 44.6 °F 93% 30.30 in 4.0 mi SW 15.0 mph 21.9 mph 0.01 in   Overcast
10:15 AM 48.2 °F - 44.6 °F 87% 30.31 in 4.0 mi SW 13.8 mph 19.6 mph N/A   Overcast
10:35 AM 48.2 °F - 44.6 °F 87% 30.32 in 3.0 mi SSW 12.7 mph 18.4 mph N/A   Overcast
10:55 AM 48.2 °F - 44.6 °F 87% 30.32 in 3.0 mi SW 13.8 mph - N/A   Overcast
11:15 AM 48.2 °F - 44.6 °F 87% 30.33 in 4.0 mi SW 12.7 mph 18.4 mph N/A   Overcast
11:35 AM 50.0 °F - 44.6 °F 82% 30.33 in 4.0 mi SW 12.7 mph 18.4 mph N/A   Haze
11:55 AM 50.0 °F - 44.6 °F 82% 30.33 in 4.0 mi SSW 13.8 mph 21.9 mph N/A   Haze
12:15 PM 50.0 °F - 44.6 °F 82% 30.33 in 4.0 mi SSW 15.0 mph 20.7 mph N/A   Overcast
12:35 PM 50.0 °F - 44.6 °F 82% 30.33 in 4.0 mi SW 16.1 mph 23.0 mph N/A   Haze
12:55 PM 48.2 °F - 44.6 °F 87% 30.33 in 5.0 mi SW 15.0 mph - N/A   Overcast
1:15 PM 50.0 °F - 44.6 °F 82% 30.33 in 4.0 mi WSW 10.4 mph 18.4 mph N/A   Overcast
1:35 PM 46.4 °F 41.5 °F 42.8 °F 87% 30.34 in 5.0 mi SW 10.4 mph 17.3 mph N/A Rain Light Rain
1:55 PM 48.2 °F - 42.8 °F 82% 30.36 in 5.0 mi WSW 9.2 mph - N/A   Haze
2:15 PM 46.4 °F 42.9 °F 41.0 °F 81% 30.37 in 5.0 mi WSW 6.9 mph - N/A   Haze
2:35 PM 46.4 °F 42.4 °F 42.8 °F 87% 30.37 in 5.0 mi SW 8.1 mph - N/A   Haze
2:55 PM 48.2 °F - 42.8 °F 82% 30.38 in 5.0 mi West 12.7 mph - N/A   Haze
3:15 PM 48.2 °F - 41.0 °F 76% 30.39 in 5.0 mi West 10.4 mph - N/A   Haze
3:35 PM 48.2 °F - 41.0 °F 76% 30.39 in 5.0 mi West 11.5 mph - N/A   Haze
3:55 PM 48.2 °F - 41.0 °F 76% 30.40 in 5.0 mi West 10.4 mph 16.1 mph N/A   Haze
4:15 PM 46.4 °F 41.9 °F 41.0 °F 81% 30.40 in 5.0 mi West 9.2 mph - N/A   Haze
4:35 PM 46.4 °F 42.4 °F 42.8 °F 87% 30.41 in 4.0 mi West 8.1 mph - N/A   Clear
4:55 PM 46.4 °F 41.9 °F 39.2 °F 76% 30.42 in 5.0 mi WSW 9.2 mph - N/A   Haze
5:15 PM 46.4 °F 42.9 °F 41.0 °F 81% 30.42 in 7.0 mi West 6.9 mph - N/A   Clear
5:35 PM 46.4 °F 42.4 °F 39.2 °F 76% 30.43 in 5.0 mi West 8.1 mph - N/A   Haze
5:55 PM 46.4 °F 43.5 °F 39.2 °F 76% 30.42 in 7.0 mi West 5.8 mph - N/A   Clear
6:35 PM 42.8 °F - 37.4 °F 81% 30.44 in 5.0 mi Calm Calm - N/A   Haze
6:55 PM 39.2 °F 37.0 °F 37.4 °F 93% 30.44 in 5.0 mi SSE 3.5 mph - N/A   Scattered Clouds
7:15 PM 39.2 °F 35.0 °F 37.4 °F 93% 30.45 in 5.0 mi SSE 5.8 mph - N/A   Scattered Clouds
7:55 PM 41.0 °F - 37.4 °F 87% 30.45 in 7.0 mi Calm Calm - N/A   Mostly Cloudy
8:15 PM 39.2 °F 37.0 °F 37.4 °F 93% 30.46 in 7.0 mi SSE 3.5 mph - N/A   Overcast
8:35 PM 39.2 °F 37.0 °F 37.4 °F 93% 30.45 in 10.0 mi SE 3.5 mph - N/A   Mostly Cloudy
8:55 PM 41.0 °F 39.0 °F 37.4 °F 87% 30.44 in 10.0 mi SE 3.5 mph - N/A   Scattered Clouds
9:15 PM 39.2 °F 37.0 °F 37.4 °F 93% 30.44 in 10.0 mi SE 3.5 mph - N/A   Clear
9:35 PM 39.2 °F 37.0 °F 37.4 °F 93% 30.45 in 10.0 mi SE 3.5 mph - N/A   Scattered Clouds
9:55 PM 39.2 °F 35.9 °F 37.4 °F 93% 30.44 in 10.0 mi SE 4.6 mph - N/A   Scattered Clouds
10:15 PM 41.0 °F 38.0 °F 37.4 °F 87% 30.44 in 10.0 mi SE 4.6 mph - N/A   Clear
10:35 PM 39.2 °F 37.0 °F 37.4 °F 93% 30.44 in 10.0 mi SE 3.5 mph - N/A   Clear
10:55 PM 39.2 °F 37.0 °F 37.4 °F 93% 30.44 in 10.0 mi SE 3.5 mph - N/A   Clear
11:15 PM 37.4 °F 34.9 °F 35.6 °F 93% 30.44 in 10.0 mi SE 3.5 mph - N/A   Clear
11:35 PM 37.4 °F - 35.6 °F 93% 30.44 in 10.0 mi Calm Calm - N/A   Clear
11:55 PM 37.4 °F 34.9 °F 35.6 °F 93% 30.43 in 10.0 mi SE 3.5 mph - N/A   Clear